STW2401 URMM-UWLL

Flight info

Callsign STW2401
Flight time N/A
Altitude 38000
Route LARIN5M LARIN G481 NIRGA R807 UROBO P135 DAFOS T789 NEPNI NEPNI1E
Aircraft B772/H-SDE2E3FGHIJ5LORVWXY/LB1D1

Departure

Time N/A
Airport Mineralnye Vody Airport (URMM)

Arrival

Time 2026-04-30 19:21
Airport Ulyanovsk Baratayevka Airport (UWLL)
Time Latitude Longitude Altitude Speed Heading
2026-04-30 17:39 46.32504 43.77937 37171 ft 478 kts
2026-04-30 17:42 46.65144 43.89004 37161 ft 478 kts
2026-04-30 17:44 47.00911 44.01297 37180 ft 479 kts
2026-04-30 17:47 47.25666 44.09982 37177 ft 478 kts
2026-04-30 17:48 47.48296 44.17992 37172 ft 480 kts
2026-04-30 17:50 47.74221 44.27259 37157 ft 476 kts
2026-04-30 17:52 47.93735 44.34295 37155 ft 479 kts
2026-04-30 17:56 48.47935 44.60687 37138 ft 485 kts 13°
2026-04-30 17:58 48.67107 44.70145 37127 ft 483 kts 14°
2026-04-30 18:00 48.92353 44.82123 37141 ft 470 kts 11°
2026-04-30 18:01 49.08155 44.88726 37126 ft 470 kts 12°
2026-04-30 18:02 49.27123 44.96770 37145 ft 469 kts 12°
2026-04-30 18:04 49.46118 45.04900 37139 ft 471 kts 12°
2026-04-30 18:06 49.71404 45.15838 37125 ft 462 kts 12°
2026-04-30 18:08 49.93308 45.25452 37116 ft 463 kts 12°
2026-04-30 18:10 50.18514 45.34919 37097 ft 459 kts
2026-04-30 18:11 50.40689 45.42478 37091 ft 459 kts
2026-04-30 18:13 50.56565 45.47957 37070 ft 459 kts
2026-04-30 18:14 50.72329 45.53437 37073 ft 460 kts
2026-04-30 18:15 50.91341 45.60191 37064 ft 459 kts
2026-04-30 18:16 51.03745 45.65011 37042 ft 460 kts 20°
2026-04-30 18:17 51.09607 45.69258 37035 ft 463 kts 24°
2026-04-30 18:18 51.18333 45.75812 37029 ft 463 kts 24°
2026-04-30 18:18 51.24168 45.80207 37034 ft 463 kts 24°
2026-04-30 18:19 51.29952 45.84574 37036 ft 463 kts 24°
2026-04-30 18:19 51.35780 45.88986 37026 ft 462 kts 24°
2026-04-30 18:20 51.41619 45.93417 37037 ft 462 kts 24°
2026-04-30 18:20 51.47503 45.97896 37039 ft 461 kts 24°
2026-04-30 18:21 51.53368 46.02372 37047 ft 460 kts 24°
2026-04-30 18:21 51.59199 46.06931 37047 ft 462 kts 26°
2026-04-30 18:22 51.65007 46.11739 37048 ft 462 kts 26°
2026-04-30 18:22 51.71017 46.15608 37053 ft 460 kts 15°
2026-04-30 18:22 51.74133 46.17112 37051 ft 460 kts 15°
2026-04-30 18:23 51.80380 46.20121 37050 ft 459 kts 15°
2026-04-30 18:23 51.86657 46.23153 37035 ft 459 kts 15°
2026-04-30 18:24 51.95967 46.27666 37023 ft 459 kts 15°
2026-04-30 18:25 52.02219 46.30708 37015 ft 458 kts 15°
2026-04-30 18:25 52.11502 46.35241 37008 ft 459 kts 15°
2026-04-30 18:26 52.20815 46.39808 37005 ft 458 kts 15°
2026-04-30 18:27 52.30093 46.44378 37010 ft 457 kts 15°
2026-04-30 18:28 52.39357 46.48960 37008 ft 463 kts 15°
2026-04-30 18:28 52.48662 46.53585 37005 ft 459 kts 15°
2026-04-30 18:29 52.61068 46.59781 36999 ft 461 kts 15°
2026-04-30 18:30 52.73169 46.65861 36163 ft 448 kts 17°
2026-04-30 18:31 52.76133 46.67356 35028 ft 457 kts 17°
2026-04-30 18:31 52.82265 46.70454 32849 ft 468 kts 17°
2026-04-30 18:32 52.88423 46.73576 31273 ft 469 kts 16°
2026-04-30 18:32 52.91544 46.75161 30372 ft 472 kts 16°
2026-04-30 18:32 52.97813 46.78352 28179 ft 478 kts 17°
2026-04-30 18:33 53.00952 46.79953 26883 ft 479 kts 17°
2026-04-30 18:33 53.07303 46.83201 23873 ft 480 kts 18°
2026-04-30 18:33 53.10442 46.84810 22479 ft 473 kts 18°
2026-04-30 18:34 53.13530 46.86394 21223 ft 463 kts 18°
2026-04-30 18:34 53.19497 46.89462 19122 ft 438 kts 18°
2026-04-30 18:34 53.22331 46.90916 17973 ft 430 kts 16°
2026-04-30 18:35 53.25257 46.91870 16774 ft 428 kts
2026-04-30 18:35 53.28193 46.91901 16034 ft 425 kts 355°
2026-04-30 18:35 53.31080 46.91047 15480 ft 416 kts 343°
2026-04-30 18:36 53.36297 46.87358 15026 ft 406 kts 332°
2026-04-30 18:36 53.38817 46.85326 15009 ft 396 kts 332°
2026-04-30 18:36 53.43505 46.81542 15009 ft 357 kts 333°
2026-04-30 18:37 53.45701 46.79766 14988 ft 340 kts 332°
2026-04-30 18:37 53.47796 46.78083 14975 ft 329 kts 332°
2026-04-30 18:37 53.49842 46.76445 14585 ft 328 kts 332°
2026-04-30 18:37 53.51904 46.74796 14162 ft 328 kts 333°
2026-04-30 18:38 53.53928 46.73176 13815 ft 325 kts 332°
2026-04-30 18:38 53.55970 46.71509 13410 ft 324 kts 333°
2026-04-30 18:38 53.57987 46.69852 13049 ft 321 kts 333°
2026-04-30 18:38 53.59952 46.68228 12744 ft 317 kts 333°
2026-04-30 18:39 53.61939 46.66568 12392 ft 315 kts 333°
2026-04-30 18:39 53.63878 46.64933 12013 ft 313 kts 333°
2026-04-30 18:39 53.65816 46.63286 11694 ft 310 kts 333°
2026-04-30 18:39 53.67731 46.61634 11333 ft 309 kts 333°
2026-04-30 18:40 53.69564 46.59815 10993 ft 306 kts 320°
2026-04-30 18:40 53.70831 46.57050 10855 ft 292 kts 292°
2026-04-30 18:40 53.71232 46.53796 10765 ft 276 kts 265°
2026-04-30 18:40 53.70761 46.50771 10461 ft 266 kts 237°
2026-04-30 18:41 53.69537 46.48531 10096 ft 257 kts 208°
2026-04-30 18:41 53.67874 46.47610 9685 ft 252 kts 180°
2026-04-30 18:41 53.66192 46.48201 9303 ft 248 kts 151°
2026-04-30 18:41 53.64957 46.50100 9040 ft 242 kts 121°
2026-04-30 18:42 53.64506 46.52800 9018 ft 243 kts 91°
2026-04-30 18:42 53.65427 46.58231 8752 ft 243 kts 73°
2026-04-30 18:42 53.65981 46.60909 8446 ft 243 kts 74°
2026-04-30 18:45 53.71817 46.89415 7048 ft 256 kts 73°
2026-04-30 18:45 53.72400 46.92283 7041 ft 257 kts 73°
2026-04-30 18:45 53.72984 46.95159 7043 ft 257 kts 73°
2026-04-30 18:46 53.73569 46.98049 7041 ft 257 kts 73°
2026-04-30 18:46 53.74153 47.00937 7043 ft 257 kts 73°
2026-04-30 18:46 53.74737 47.03828 7043 ft 257 kts 73°
2026-04-30 18:46 53.75324 47.06735 7039 ft 258 kts 73°
2026-04-30 18:47 53.75905 47.09620 7033 ft 258 kts 73°
2026-04-30 18:47 53.76503 47.12595 7046 ft 258 kts 74°
2026-04-30 18:47 53.77085 47.15492 7053 ft 259 kts 73°
2026-04-30 18:47 53.77670 47.18397 7046 ft 259 kts 71°
2026-04-30 18:48 53.78453 47.21180 6784 ft 258 kts 61°
2026-04-30 18:48 53.79554 47.23599 6441 ft 260 kts 47°
2026-04-30 18:48 53.80898 47.25636 6146 ft 258 kts 45°
2026-04-30 18:48 53.82179 47.27726 5829 ft 256 kts 48°
2026-04-30 18:49 53.83411 47.29899 5537 ft 254 kts 49°
2026-04-30 18:49 53.84613 47.32074 5245 ft 252 kts 49°
2026-04-30 18:49 53.85795 47.34227 5063 ft 247 kts 49°
2026-04-30 18:49 53.86980 47.36391 5048 ft 252 kts 49°
2026-04-30 18:50 53.88170 47.38564 5050 ft 252 kts 49°
2026-04-30 18:50 53.89352 47.40723 5049 ft 251 kts 49°
2026-04-30 18:50 53.90543 47.42902 5050 ft 252 kts 49°
2026-04-30 18:50 53.91735 47.45085 5049 ft 252 kts 49°
2026-04-30 18:51 53.92925 47.47265 5043 ft 252 kts 49°
2026-04-30 18:51 53.94118 47.49455 5046 ft 252 kts 49°
2026-04-30 18:51 53.95282 47.51591 5049 ft 244 kts 49°
2026-04-30 18:51 53.96419 47.53678 5051 ft 235 kts 49°
2026-04-30 18:52 53.97507 47.55681 5053 ft 232 kts 49°
2026-04-30 18:52 53.98606 47.57703 5051 ft 232 kts 49°
2026-04-30 18:52 53.99687 47.59696 5052 ft 231 kts 49°
2026-04-30 18:52 54.00792 47.61732 5053 ft 231 kts 49°
2026-04-30 18:53 54.01877 47.63735 5055 ft 231 kts 49°
2026-04-30 18:53 54.02972 47.65757 5057 ft 231 kts 49°
2026-04-30 18:53 54.04061 47.67770 5056 ft 228 kts 49°
2026-04-30 18:53 54.05096 47.69683 5052 ft 217 kts 50°
2026-04-30 18:54 54.06094 47.71531 5055 ft 206 kts 49°
2026-04-30 18:54 54.07055 47.73311 5065 ft 201 kts 50°
2026-04-30 18:54 54.07986 47.75037 5063 ft 195 kts 50°
2026-04-30 18:54 54.08900 47.76732 5058 ft 186 kts 50°
2026-04-30 18:55 54.09779 47.78365 5061 ft 186 kts 50°
2026-04-30 18:55 54.11531 47.81622 5062 ft 185 kts 50°
2026-04-30 18:55 54.12413 47.83263 5064 ft 185 kts 50°
2026-04-30 18:56 54.14171 47.86537 5067 ft 186 kts 50°
2026-04-30 18:56 54.15054 47.88182 5013 ft 189 kts 50°
2026-04-30 18:56 54.15953 47.89861 4827 ft 189 kts 50°
2026-04-30 18:57 54.16946 47.94233 4393 ft 218 kts 79°
2026-04-30 18:57 54.17208 47.96847 3981 ft 225 kts 80°
2026-04-30 18:57 54.17473 47.99542 3646 ft 229 kts 79°
2026-04-30 18:58 54.18016 48.04986 3034 ft 233 kts 79°
2026-04-30 18:58 54.18292 48.07751 2718 ft 234 kts 79°
2026-04-30 18:58 54.18568 48.10540 2403 ft 236 kts 79°
2026-04-30 18:59 54.20104 48.15210 2044 ft 213 kts 39°
2026-04-30 19:00 54.23498 48.18799 1975 ft 168 kts 33°
2026-04-30 19:00 54.24479 48.19844 1798 ft 160 kts 34°
2026-04-30 19:00 54.26390 48.21893 1332 ft 179 kts 32°
2026-04-30 19:01 54.29837 48.26311 1080 ft 217 kts 42°
2026-04-30 19:02 54.32034 48.29764 2900 ft 227 kts 43°
2026-04-30 19:02 54.34518 48.33677 2974 ft 246 kts 43°
2026-04-30 19:03 54.37400 48.36840 2961 ft 250 kts
2026-04-30 19:03 54.40547 48.34690 2963 ft 259 kts 310°
2026-04-30 19:04 54.41242 48.28739 2960 ft 265 kts 253°
2026-04-30 19:04 54.38999 48.23738 2969 ft 266 kts 223°
2026-04-30 19:05 54.36321 48.19319 2965 ft 264 kts 223°
2026-04-30 19:05 54.33700 48.15009 2969 ft 257 kts 223°
2026-04-30 19:06 54.31565 48.10151 2948 ft 257 kts 257°
2026-04-30 19:06 54.31265 48.07123 2958 ft 257 kts 263°
2026-04-30 19:06 54.30771 48.01079 2959 ft 256 kts 263°
2026-04-30 19:07 54.30268 47.94950 2958 ft 255 kts 263°
2026-04-30 19:07 54.30020 47.91947 2959 ft 256 kts 263°
2026-04-30 19:08 54.29513 47.85844 2959 ft 257 kts 263°
2026-04-30 19:08 54.29004 47.79762 2954 ft 257 kts 263°
2026-04-30 19:08 54.28746 47.76682 2953 ft 258 kts 263°
2026-04-30 19:09 54.27557 47.71005 2939 ft 258 kts 224°
2026-04-30 19:09 54.26020 47.69444 2937 ft 255 kts 193°
2026-04-30 19:09 54.24256 47.69001 2948 ft 254 kts 184°
2026-04-30 19:10 54.20736 47.68448 2947 ft 253 kts 183°
2026-04-30 19:10 54.17217 47.67895 2949 ft 253 kts 183°
2026-04-30 19:11 54.15473 47.67616 2949 ft 254 kts 183°
2026-04-30 19:11 54.11948 47.67038 2939 ft 254 kts 183°
2026-04-30 19:11 54.10173 47.66732 2939 ft 254 kts 183°
2026-04-30 19:12 54.08438 47.66832 2929 ft 250 kts 161°
2026-04-30 19:12 54.06977 47.68280 2923 ft 242 kts 130°
2026-04-30 19:12 54.06184 47.70705 2920 ft 236 kts 101°
2026-04-30 19:13 54.06668 47.76093 2933 ft 232 kts 73°
2026-04-30 19:13 54.07601 47.81358 2943 ft 234 kts 73°
2026-04-30 19:13 54.08073 47.84021 2938 ft 229 kts 72°
2026-04-30 19:14 54.08723 47.86374 2937 ft 220 kts 59°
2026-04-30 19:14 54.09523 47.88526 2941 ft 209 kts 58°
2026-04-30 19:14 54.10283 47.90546 2945 ft 198 kts 58°
2026-04-30 19:14 54.11004 47.92469 2945 ft 188 kts 58°
2026-04-30 19:15 54.11697 47.94319 2941 ft 179 kts 58°
2026-04-30 19:15 54.13016 47.97836 2690 ft 179 kts 58°
2026-04-30 19:15 54.13687 47.99631 2434 ft 182 kts 58°
2026-04-30 19:16 54.14367 48.01450 2121 ft 184 kts 58°
2026-04-30 19:16 54.15028 48.03225 2070 ft 170 kts 58°
2026-04-30 19:16 54.16220 48.06424 2047 ft 147 kts 58°
2026-04-30 19:17 54.16770 48.07894 2046 ft 140 kts 58°
2026-04-30 19:17 54.17785 48.10593 2048 ft 123 kts 58°
2026-04-30 19:17 54.18245 48.11821 2050 ft 120 kts 58°
2026-04-30 19:18 54.18800 48.13497 2057 ft 121 kts 62°
2026-04-30 19:18 54.19918 48.14954 1878 ft 123 kts 33°
2026-04-30 19:18 54.20640 48.15744 1714 ft 120 kts 34°
2026-04-30 19:19 54.21358 48.16508 1557 ft 122 kts 33°
2026-04-30 19:19 54.22096 48.17298 1389 ft 125 kts 33°
2026-04-30 19:19 54.23579 48.18878 994 ft 127 kts 32°
2026-04-30 19:20 54.24330 48.19685 826 ft 124 kts 33°
2026-04-30 19:20 54.25067 48.20471 655 ft 125 kts 31°
2026-04-30 19:20 54.26515 48.22019 435 ft 90 kts 31°
2026-04-30 19:21 54.26897 48.22427 428 ft 45 kts 32°
2026-04-30 19:21 54.27034 48.22771 420 ft 9 kts 167°
2026-04-30 19:22 54.26984 48.22790 420 ft 0 kts 168°
2026-04-30 19:22 54.26931 48.22817 421 ft 10 kts 145°
2026-04-30 19:23 54.27180 48.23169 412 ft 24 kts 31°
2026-04-30 19:24 54.27513 48.23528 405 ft 32 kts 32°
2026-04-30 19:24 54.27717 48.23747 396 ft 36 kts 31°
2026-04-30 19:24 54.28043 48.24097 381 ft 21 kts 32°
2026-04-30 19:25 54.28248 48.24004 373 ft 14 kts 302°
2026-04-30 19:26 54.28307 48.23846 373 ft 9 kts 302°